(188358) = 2003 YL103

Discovered at Socorro on 2003-12-20 by LINEAR.

Orbit

Orbit type: Main Belt

Note: WebGL enabled browser required.

epoch2024-03-31.0
epoch JD2460400.5
perihelion date2020-05-10.52494
perihelion JD2458980.02494
argument of perihelion (°)133.58335
ascending node (°)14.41396
inclination (°)4.01354
eccentricity0.1641443
perihelion distance (AU)2.1112613
Tisserand w.r.t. Jupiter3.4
ΔV w.r.t. Earth (km/sec)9.2
semimajor axis (AU)2.5258683
mean anomaly (°)348.75576
mean daily motion (°/day)0.24552050
aphelion distance (AU)2.940
period (years)4.01
P-vector [x]-0.84758101
P-vector [y]0.46448184
P-vector [z]0.25663798
Q-vector [x]-0.53037993
Q-vector [y]-0.75734962
Q-vector [z]-0.38094445
absolute magnitude16.31
phase slope0.15
uncertainty0
referenceMPEC 2024-E179
observations used825
oppositions13
arc length (days)8836
first opposition used2000
last opposition used2024
residual rms (arc-secs)0.67
perturbers coarse indicatorM-v
perturbers precise indicator003Ek
first observation date used2000-01-03.0
last observation date used2024-03-13.0
computer nameMPCLINUX
JD of orbit computation2456966.853851
perihelion JD uncertainty (days)1.4570E-04
argument of perihelion uncertainty (°)1.1050E-04
ascending node uncertainty (°)1.1040E-04
inclination uncertainty (°)6.1173E-06
eccentricity uncertainty 6.7706E-07
perihelion distance uncertainty (AU)1.7114E-06
Minimum Orbit Intersection Distances (in AU)
for orbit epoch: 2460400.5, reference: E2024-GB3
Mercury1.75133
Venus1.39264
Earth1.12539
Mars0.44763
Jupiter2.06227
Saturn6.60076
Uranus16.3029
Neptune27.0222

Observations

839 total observations over interval: 2000 01 03.31821 – 2024 03 13.147665
These data are available for download (format description).

Date (UT) J2000 RA J2000 Dec Magn Location Ref
2000 01 03.31821 08 16 47.71 +27 04 38.2 19.0   704 – Lincoln Laboratory ETS, New Mexico MPS 182458
2000 01 03.33292 08 16 47.01 +27 04 42.0 19.4   704 – Lincoln Laboratory ETS, New Mexico MPS 182458
2000 01 03.36249 08 16 45.29 +27 04 48.2 19.8   704 – Lincoln Laboratory ETS, New Mexico MPS 182458
2002 09 13.21392 23 48 10.09 -03 39 26.0 21.0   644 – Palomar Mountain/NEAT MPS 179306
2002 09 13.28719 23 48 06.08 -03 39 46.0 21.4   644 – Palomar Mountain/NEAT MPS 179306
2002 09 13.35022 23 48 02.61 -03 40 03.9 19.9   644 – Palomar Mountain/NEAT MPS 179306
2003 12 18.34922 08 16 49.42 +26 40 14.6 18.9 C 704 – Lincoln Laboratory ETS, New Mexico MPS 294326
2003 12 18.36239 08 16 49.08 +26 40 17.8 19.1 C 704 – Lincoln Laboratory ETS, New Mexico MPS 294326
2003 12 20.38445 08 15 58.09 +26 47 20.2 18.8   704 – Lincoln Laboratory ETS, New Mexico MPS 94985
2003 12 20.39754 08 15 57.71 +26 47 23.1 19.0   704 – Lincoln Laboratory ETS, New Mexico MPS 94985
2003 12 20.41058 08 15 57.29 +26 47 25.5 19.0   704 – Lincoln Laboratory ETS, New Mexico MPS 94985
2003 12 20.42401 08 15 56.88 +26 47 28.5 18.9   704 – Lincoln Laboratory ETS, New Mexico MPS 94985
2003 12 20.43708 08 15 56.49 +26 47 31.3 19.1   704 – Lincoln Laboratory ETS, New Mexico MPS 94985
2003 12 23.33299 08 14 27.97 +26 57 58.8 19.3   704 – Lincoln Laboratory ETS, New Mexico MPS 94985
2003 12 23.34604 08 14 27.49 +26 58 02.5 19.1   704 – Lincoln Laboratory ETS, New Mexico MPS 94985
2003 12 23.35937 08 14 27.01 +26 58 05.2 19.2   704 – Lincoln Laboratory ETS, New Mexico MPS 94985
2003 12 23.37227 08 14 26.47 +26 58 08.2 19.4   704 – Lincoln Laboratory ETS, New Mexico MPS 94985
2003 12 23.38541 08 14 26.01 +26 58 10.4 19.1   704 – Lincoln Laboratory ETS, New Mexico MPS 94985
2003 12 28.33492 08 11 13.94 +27 16 39.2 18.7   704 – Lincoln Laboratory ETS, New Mexico MPS 96408
2003 12 28.34805 08 11 13.33 +27 16 41.6 19.3   704 – Lincoln Laboratory ETS, New Mexico MPS 96408
2003 12 28.36100 08 11 12.71 +27 16 45.0 19.5   704 – Lincoln Laboratory ETS, New Mexico MPS 96408
2003 12 28.37460 08 11 12.12 +27 16 48.6 19.3   704 – Lincoln Laboratory ETS, New Mexico MPS 96408
2003 12 28.38756 08 11 11.50 +27 16 50.9 19.3   704 – Lincoln Laboratory ETS, New Mexico MPS 96408
2004 01 13.17665 07 56 35.61 +28 11 12.2 18.3 R 699 – Lowell Observatory-LONEOS MPS 96653
2004 01 13.19670 07 56 34.34 +28 11 15.6   699 – Lowell Observatory-LONEOS MPS 96653
2004 01 13.21673 07 56 32.94 +28 11 19.3   699 – Lowell Observatory-LONEOS MPS 96653
2004 01 13.23674 07 56 31.63 +28 11 22.8   699 – Lowell Observatory-LONEOS MPS 96653
2004 01 18.22194 07 51 08.13 +28 23 54.7 18.8 V 691 – Steward Observatory, Kitt Peak-Spacewatch MPS 97059
2004 01 18.25445 07 51 05.92 +28 23 59.2 18.6 V 691 – Steward Observatory, Kitt Peak-Spacewatch MPS 97059
2004 01 18.28692 07 51 03.70 +28 24 03.6 18.9 V 691 – Steward Observatory, Kitt Peak-Spacewatch MPS 97059
2004 01 26.18179 07 42 37.11 +28 36 32.7 18.4 R 699 – Lowell Observatory-LONEOS MPS 97855
2004 01 26.18263 07 42 37.03 +28 36 33.0 18.4 R 699 – Lowell Observatory-LONEOS MPS 97855
2004 01 26.20188 07 42 35.84 +28 36 34.2   699 – Lowell Observatory-LONEOS MPS 97855
2004 01 26.20273 07 42 35.75 +28 36 35.2   699 – Lowell Observatory-LONEOS MPS 97855
2004 01 26.22189 07 42 34.56 +28 36 35.7   699 – Lowell Observatory-LONEOS MPS 97855
2004 01 26.22275 07 42 34.51 +28 36 35.7   699 – Lowell Observatory-LONEOS MPS 97855
2004 01 26.24193 07 42 33.27 +28 36 37.1   699 – Lowell Observatory-LONEOS MPS 97855
2004 01 26.24275 07 42 33.16 +28 36 37.3   699 – Lowell Observatory-LONEOS MPS 97855
2004 01 31.27651 07 37 36.16 +28 39 24.3 18.8   704 – Lincoln Laboratory ETS, New Mexico MPS 97855
2004 01 31.29025 07 37 35.37 +28 39 22.7 18.6   704 – Lincoln Laboratory ETS, New Mexico MPS 97855
2004 01 31.31729 07 37 33.79 +28 39 23.8 18.9   704 – Lincoln Laboratory ETS, New Mexico MPS 97855
2004 02 14.21747 07 27 26.15 +28 26 49.2 19.0   704 – Lincoln Laboratory ETS, New Mexico MPS 102216
2004 02 14.22929 07 27 25.77 +28 26 46.4 19.2   704 – Lincoln Laboratory ETS, New Mexico MPS 102216
2004 02 14.24110 07 27 25.36 +28 26 45.8 19.7   704 – Lincoln Laboratory ETS, New Mexico MPS 102216
2004 02 14.25292 07 27 24.92 +28 26 43.7 19.8   704 – Lincoln Laboratory ETS, New Mexico MPS 102216
2004 02 14.26479 07 27 24.60 +28 26 42.9 19.8   704 – Lincoln Laboratory ETS, New Mexico MPS 102216
2004 03 19.17547 07 32 30.34 +26 30 32.8 19.6   704 – Lincoln Laboratory ETS, New Mexico MPS 101206
2004 03 19.19704 07 32 31.30 +26 30 25.2 20.2   704 – Lincoln Laboratory ETS, New Mexico MPS 101206
2004 03 19.20784 07 32 31.73 +26 30 22.6 19.8   704 – Lincoln Laboratory ETS, New Mexico MPS 101206
2004 03 19.21891 07 32 32.20 +26 30 18.1 20.4   704 – Lincoln Laboratory ETS, New Mexico MPS 101206
2006 09 19.22377 23 39 13.82 -04 34 21.3 20.0 V 703 – Catalina Sky Survey MPS 179306
2006 09 19.23506 23 39 13.28 -04 34 23.9 20.6 V 703 – Catalina Sky Survey MPS 179306
2006 09 19.24639 23 39 12.67 -04 34 27.2 19.6 V 703 – Catalina Sky Survey MPS 179306
2006 09 19.25769 23 39 11.98 -04 34 30.6 20.1 V 703 – Catalina Sky Survey MPS 179306
2006 09 26.17152 23 33 00.72 -05 05 05.9 20.9 V 691 – Steward Observatory, Kitt Peak-Spacewatch MPS 181008
2006 09 26.18887 23 32 59.75 -05 05 10.0 20.3 V 691 – Steward Observatory, Kitt Peak-Spacewatch MPS 181008
2006 09 26.20626 23 32 58.83 -05 05 14.9 20.3 V 691 – Steward Observatory, Kitt Peak-Spacewatch MPS 181008
2006 09 26.27321 23 32 55.21 -05 05 32.4 20.1 V G96 – Mt. Lemmon Survey MPS 181008
2006 09 26.27986 23 32 54.85 -05 05 33.6 20.2 V G96 – Mt. Lemmon Survey MPS 181008
2006 09 26.28677 23 32 54.45 -05 05 35.6 20.2 V G96 – Mt. Lemmon Survey MPS 181008
2006 09 26.29370 23 32 54.09 -05 05 37.5 20.2 V G96 – Mt. Lemmon Survey MPS 181008
2006 10 20.20449 23 15 52.38 -06 17 19.2 20.5 V G96 – Mt. Lemmon Survey MPS 182917
2006 10 20.21172 23 15 52.12 -06 17 20.0 20.3 V G96 – Mt. Lemmon Survey MPS 182917
2006 10 20.21888 23 15 51.91 -06 17 20.6 20.9 V G96 – Mt. Lemmon Survey MPS 182917
2006 10 20.22610 23 15 51.66 -06 17 21.1 20.4 V G96 – Mt. Lemmon Survey MPS 182917
2007 11 03.44718 07 54 33.26 +25 51 18.7 20.0 V G96 – Mt. Lemmon Survey MPS 224825
2007 11 03.45433 07 54 33.69 +25 51 18.6 20.1 V G96 – Mt. Lemmon Survey MPS 224825
2007 11 03.46151 07 54 34.12 +25 51 18.7 20.1 V G96 – Mt. Lemmon Survey MPS 224825
2007 11 03.46871 07 54 34.52 +25 51 18.7 20.1 V G96 – Mt. Lemmon Survey MPS 224825
2007 11 11.37287 08 01 41.84 +25 51 34.6 20.1 V G96 – Mt. Lemmon Survey MPS 226835
2007 11 11.38116 08 01 42.24 +25 51 34.8 20.3 V G96 – Mt. Lemmon Survey MPS 226835
2007 11 11.38941 08 01 42.63 +25 51 34.8 20.5 V G96 – Mt. Lemmon Survey MPS 226835
2007 11 11.39769 08 01 42.99 +25 51 35.1 20.6 V G96 – Mt. Lemmon Survey MPS 226835
2007 11 18.41794 08 06 38.34 +25 55 50.5 19.8   704 – Lincoln Laboratory ETS, New Mexico MPS 228264
2007 11 18.43058 08 06 38.74 +25 55 51.7 20.5   704 – Lincoln Laboratory ETS, New Mexico MPS 228264
2007 11 18.44312 08 06 39.07 +25 55 52.3 20.1   704 – Lincoln Laboratory ETS, New Mexico MPS 228264
2007 11 18.45567 08 06 39.46 +25 55 53.3 20.1   704 – Lincoln Laboratory ETS, New Mexico MPS 228264
2007 12 13.32825 08 11 18.53 +26 47 46.4 19.1   704 – Lincoln Laboratory ETS, New Mexico MPS 230920
2007 12 13.35406 08 11 17.98 +26 47 51.6 19.5   704 – Lincoln Laboratory ETS, New Mexico MPS 230920
2007 12 13.36696 08 11 17.72 +26 47 54.6 20.1   704 – Lincoln Laboratory ETS, New Mexico MPS 230920
2007 12 13.37986 08 11 17.56 +26 47 57.6 20.0   704 – Lincoln Laboratory ETS, New Mexico MPS 230920
2007 12 15.32987 08 10 42.93 +26 54 20.0 19.3   704 – Lincoln Laboratory ETS, New Mexico MPS 231333
2007 12 15.34269 08 10 42.53 +26 54 22.5 20.0   704 – Lincoln Laboratory ETS, New Mexico MPS 231333
2007 12 15.35561 08 10 42.28 +26 54 26.4 20.5   704 – Lincoln Laboratory ETS, New Mexico MPS 231333
2007 12 15.38128 08 10 41.73 +26 54 31.8 20.2   704 – Lincoln Laboratory ETS, New Mexico MPS 231333
2007 12 18.34325 08 09 32.65 +27 04 41.0 19.4 V G96 – Mt. Lemmon Survey MPS 231777
2007 12 18.34380 08 09 32.65 +27 04 41.0 19.3 V G96 – Mt. Lemmon Survey MPS 231777
